| time (UTC) | temp C | wind direction | speed KPH | gust KPH | rain 1hr cm | rain 24hr cm | rain mn cm | humidity % | barometer mb |
| 20260507073003 | 12 | 360 | 4.8 | 8.0 | 0.00 | 0.41 | 0.00 | 84 | 1014.3 |
| 20260507071504 | 12 | 360 | 1.6 | 6.4 | 0.00 | 0.41 | 0.00 | 85 | 1014.4 |
| 20260507070010 | 11 | 360 | 0.0 | 4.8 | 0.00 | 0.41 | 0.00 | 87 | 1014.4 |
| 20260507064634 | 11 | 360 | 3.2 | 4.8 | 0.00 | 0.43 | 0.00 | 87 | 1014.3 |
| 20260507063019 | 11 | 360 | 0.0 | 0.0 | 0.00 | 0.43 | 0.00 | 87 | 1014.4 |
| 20260507061551 | 11 | 360 | 0.0 | 4.8 | 0.00 | 0.43 | 0.00 | 89 | 1014.3 |
| 20260507060107 | 11 | 360 | 0.0 | 3.2 | 0.00 | 0.43 | 0.00 | 91 | 1014.3 |
| 20260507054640 | 11 | 360 | 0.0 | 4.8 | 0.00 | 0.43 | 0.00 | 92 | 1014.4 |
| 20260507053130 | 10 | 360 | 1.6 | 8.0 | 0.00 | 0.43 | 0.00 | 92 | 1014.3 |
| 20260507051625 | 10 | 360 | 1.6 | 4.8 | 0.00 | 0.43 | 0.00 | 92 | 1014.1 |
| 20260507050127 | 10 | 360 | 0.0 | 0.0 | 0.00 | 0.43 | 0.00 | 92 | 1014.0 |
| 20260507044630 | 10 | 360 | 0.0 | 4.8 | 0.00 | 0.43 | 0.00 | 91 | 1013.9 |
| 20260507043001 | 10 | 360 | 1.6 | 6.4 | 0.00 | 0.43 | 0.00 | 91 | 1013.8 |
| 20260507041506 | 10 | 360 | 9.7 | 11.3 | 0.00 | 0.43 | 0.00 | 91 | 1013.7 |
| 20260507040052 | 10 | 360 | 4.8 | 8.0 | 0.00 | 0.43 | 0.00 | 92 | 1013.7 |
| 20260507034603 | 10 | 360 | 1.6 | 6.4 | 0.00 | 0.43 | 0.00 | 91 | 1013.6 |
| 20260507033032 | 10 | 360 | 3.2 | 6.4 | 0.00 | 0.43 | 0.00 | 91 | 1013.6 |
| 20260507031609 | 10 | 360 | 1.6 | 8.0 | 0.00 | 0.43 | 0.00 | 90 | 1013.6 |
| 20260507030115 | 10 | 360 | 1.6 | 8.0 | 0.00 | 0.43 | 0.00 | 90 | 1013.5 |
| 20260507024619 | 10 | 360 | 1.6 | 6.4 | 0.00 | 0.43 | 0.00 | 90 | 1013.6 |
| 20260507023129 | 10 | 360 | 4.8 | 8.0 | 0.00 | 0.43 | 0.00 | 90 | 1013.6 |
| 20260507021504 | 10 | 360 | 1.6 | 4.8 | 0.00 | 0.43 | 0.00 | 89 | 1013.6 |
| 20260507020019 | 10 | 360 | 3.2 | 6.4 | 0.00 | 0.43 | 0.00 | 88 | 1013.5 |
| 20260507014503 | 10 | 360 | 3.2 | 6.4 | 0.00 | 0.43 | 0.00 | 88 | 1013.5 |
| 20260507013133 | 10 | 360 | 3.2 | 8.0 | 0.00 | 0.43 | 0.00 | 88 | 1013.4 |
| 20260507011512 | 10 | 360 | 3.2 | 4.8 | 0.00 | 0.43 | 0.00 | 88 | 1013.2 |
| 20260507010017 | 10 | 360 | 3.2 | 6.4 | 0.00 | 0.43 | 0.00 | 87 | 1013.2 |
| 20260507004553 | 10 | 360 | 1.6 | 4.8 | 0.00 | 0.43 | 0.00 | 86 | 1013.1 |
| 20260507003107 | 10 | 360 | 3.2 | 6.4 | 0.00 | 0.43 | 0.00 | 85 | 1013.2 |
| 20260507001607 | 11 | 360 | 3.2 | 4.8 | 0.00 | 0.43 | 0.00 | 84 | 1013.2 |
| 20260507000048 | 11 | 360 | 0.0 | 4.8 | 0.00 | 0.43 | 0.00 | 82 | 1013.1 |
| 20260506234507 | 11 | 360 | 4.8 | 11.3 | 0.00 | 0.43 | 0.00 | 81 | 1013.1 |
| 20260506233112 | 11 | 360 | 1.6 | 4.8 | 0.00 | 0.43 | 0.00 | 82 | 1013.1 |
| 20260506231514 | 11 | 360 | 3.2 | 6.4 | 0.00 | 0.43 | 0.00 | 81 | 1013.0 |
| 20260506230109 | 12 | 360 | 3.2 | 9.7 | 0.00 | 0.43 | 0.00 | 80 | 1013.1 |
| 20260506224614 | 12 | 360 | 1.6 | 6.4 | 0.00 | 0.43 | 0.00 | 77 | 1013.0 |
| 20260506223114 | 12 | 360 | 6.4 | 9.7 | 0.00 | 0.43 | 0.00 | 79 | 1012.9 |
| 20260506221607 | 12 | 360 | 3.2 | 6.4 | 0.00 | 0.43 | 0.00 | 79 | 1012.8 |
| 20260506220100 | 12 | 360 | 3.2 | 9.7 | 0.00 | 0.43 | 0.00 | 80 | 1012.7 |
| 20260506214605 | 12 | 360 | 3.2 | 8.0 | 0.05 | 0.48 | 0.43 | 79 | 1012.6 |
| 20260506213124 | 13 | 360 | 3.2 | 9.7 | 0.05 | 0.48 | 0.43 | 78 | 1012.5 |
| 20260506211610 | 13 | 360 | 11.3 | 12.9 | 0.05 | 0.48 | 0.43 | 78 | 1012.5 |
| 20260506210119 | 12 | 360 | 12.9 | 19.3 | 0.05 | 0.48 | 0.43 | 84 | 1012.4 |
| 20260506204626 | 12 | 360 | 3.2 | 4.8 | 0.00 | 0.71 | 0.41 | 85 | 1012.3 |
| 20260506203108 | 12 | 360 | 1.6 | 6.4 | 0.00 | 0.71 | 0.41 | 84 | 1012.1 |
| 20260506201523 | 12 | 360 | 3.2 | 6.4 | 0.00 | 0.71 | 0.41 | 84 | 1011.8 |
| 20260506200057 | 12 | 360 | 3.2 | 8.0 | 0.00 | 0.71 | 0.41 | 84 | 1011.6 |
| 20260506194552 | 12 | 360 | 6.4 | 9.7 | 0.00 | 0.81 | 0.41 | 81 | 1011.4 |
| 20260506193047 | 13 | 360 | 0.0 | 3.2 | 0.00 | 0.81 | 0.41 | 80 | 1011.0 |
| 20260506191506 | 13 | 360 | 0.0 | 0.0 | 0.00 | 0.81 | 0.41 | 80 | 1010.8 |
| 20260506190129 | 13 | 360 | 1.6 | 3.2 | 0.00 | 0.81 | 0.41 | 79 | 1010.7 |
| 20260506184629 | 14 | 360 | 1.6 | 6.4 | 0.00 | 0.81 | 0.41 | 77 | 1010.5 |
| 20260506183014 | 14 | 360 | 0.0 | 0.0 | 0.00 | 0.81 | 0.41 | 75 | 1010.4 |
| 20260506181605 | 14 | 360 | 3.2 | 6.4 | 0.00 | 0.81 | 0.41 | 75 | 1010.3 |
| 20260506180112 | 14 | 360 | 0.0 | 1.6 | 0.00 | 0.81 | 0.41 | 73 | 1010.0 |
| 20260506174614 | 14 | 360 | 0.0 | 3.2 | 0.00 | 0.97 | 0.41 | 72 | 1009.9 |
| 20260506173135 | 15 | 360 | 1.6 | 3.2 | 0.00 | 0.97 | 0.41 | 66 | 1009.7 |
| 20260506171619 | 15 | 360 | 1.6 | 3.2 | 0.00 | 0.97 | 0.41 | 67 | 1009.4 |
| 20260506170119 | 15 | 360 | 0.0 | 4.8 | 0.00 | 0.97 | 0.41 | 71 | 1009.5 |
| 20260506164502 | 15 | 360 | 3.2 | 6.4 | 0.00 | 0.99 | 0.41 | 72 | 1009.6 |
| 20260506163130 | 15 | 360 | 3.2 | 8.0 | 0.00 | 0.99 | 0.41 | 73 | 1009.6 |
| 20260506161630 | 15 | 360 | 3.2 | 4.8 | 0.00 | 0.99 | 0.41 | 68 | 1009.8 |
| 20260506160133 | 15 | 360 | 3.2 | 6.4 | 0.00 | 0.99 | 0.41 | 66 | 1009.7 |
| 20260506154516 | 15 | 360 | 0.0 | 4.8 | 0.00 | 1.04 | 0.41 | 64 | 1009.9 |
| 20260506153011 | 14 | 360 | 1.6 | 4.8 | 0.00 | 1.04 | 0.41 | 66 | 1010.2 |
| 20260506151511 | 14 | 360 | 1.6 | 4.8 | 0.00 | 1.04 | 0.41 | 65 | 1010.2 |
| 20260506150056 | 14 | 360 | 4.8 | 8.0 | 0.00 | 1.04 | 0.41 | 68 | 1010.3 |
| 20260506144605 | 13 | 360 | 4.8 | 12.9 | 0.00 | 1.04 | 0.41 | 68 | 1010.4 |
| 20260506143118 | 14 | 360 | 4.8 | 8.0 | 0.00 | 1.04 | 0.41 | 67 | 1010.5 |
| 20260506141607 | 13 | 360 | 4.8 | 9.7 | 0.00 | 1.04 | 0.41 | 66 | 1010.6 |
| 20260506140047 | 13 | 360 | 6.4 | 9.7 | 0.00 | 1.04 | 0.41 | 68 | 1010.7 |
| 20260506134520 | 13 | 360 | 4.8 | 8.0 | 0.00 | 1.09 | 0.41 | 70 | 1010.8 |
| 20260506133019 | 13 | 360 | 4.8 | 8.0 | 0.00 | 1.09 | 0.41 | 71 | 1011.1 |
| 20260506131519 | 13 | 360 | 3.2 | 6.4 | 0.00 | 1.09 | 0.41 | 72 | 1011.3 |
| 20260506130052 | 12 | 360 | 6.4 | 9.7 | 0.00 | 1.09 | 0.41 | 78 | 1011.3 |
| 20260506124528 | 12 | 360 | 9.7 | 14.5 | 0.00 | 2.69 | 0.41 | 78 | 1011.4 |
| 20260506123027 | 12 | 360 | 11.3 | 14.5 | 0.00 | 2.69 | 0.41 | 78 | 1011.3 |
| 20260506121553 | 12 | 360 | 9.7 | 12.9 | 0.00 | 2.69 | 0.41 | 80 | 1011.3 |
| 20260506114533 | 12 | 360 | 3.2 | 11.3 | 0.03 | 3.33 | 0.41 | 77 | 1011.4 |
| 20260506113054 | 11 | 360 | 3.2 | 9.7 | 0.13 | 3.33 | 0.41 | 75 | 1011.4 |
| 20260506111555 | 11 | 360 | 9.7 | 20.9 | 0.18 | 3.33 | 0.41 | 74 | 1011.6 |
| 20260506110032 | 11 | 360 | 12.9 | 30.6 | 0.30 | 3.33 | 0.41 | 74 | 1011.7 |
| 20260506104600 | 11 | 360 | 12.9 | 29.0 | 0.30 | 3.30 | 0.38 | 73 | 1011.7 |
| 20260506103052 | 11 | 360 | 16.1 | 33.8 | 0.20 | 3.20 | 0.28 | 75 | 1011.4 |
| 20260506101506 | 11 | 360 | 16.1 | 27.4 | 0.15 | 3.15 | 0.23 | 80 | 1011.1 |
| 20260506100013 | 11 | 360 | 14.5 | 20.9 | 0.03 | 3.02 | 0.10 | 81 | 1011.0 |
| 20260506094516 | 11 | 360 | 6.4 | 27.4 | 0.00 | 3.05 | 0.08 | 83 | 1010.7 |
| 20260506093009 | 11 | 360 | 11.3 | 25.7 | 0.05 | 3.05 | 0.08 | 83 | 1010.5 |
| 20260506091638 | 11 | 360 | 19.3 | 30.6 | 0.05 | 3.05 | 0.08 | 86 | 1010.3 |
| 20260506090130 | 11 | 360 | 20.9 | 38.6 | 0.05 | 3.05 | 0.08 | 88 | 1010.3 |
| 20260506084628 | 11 | 360 | 29.0 | 45.1 | 0.05 | 3.05 | 0.08 | 93 | 1009.9 |
| 20260506083004 | 11 | 360 | 1.6 | 6.4 | 0.00 | 3.00 | 0.05 | 94 | 1009.5 |
| 20260506081516 | 11 | 360 | 0.0 | 4.8 | 0.00 | 3.00 | 0.05 | 94 | 1009.4 |